Regional Weather Roundup
Issued by NWS

Home | Current Version | Previous Version | Text Only | Print | Product List | Glossary Off
Versions: 1 2 3 4 5 6 7 8 9 10 11 12 13 14 15 16 17 18 19 20 21 22 23 24 25 26 27 28 29 30 31 32 33 34 35 36 37 38 39 40 41 42 43 44 45 46 47 48 49 50

000
ASUS45 KBOU 211607
RWRCO

WEATHER ROUNDUP FOR COLORADO
NATIONAL WEATHER SERVICE DENVER/BOULDER CO
1000 AM MDT WED JUN 21 2017

NOTE: "FAIR" INDICATES FEW OR NO CLOUDS BELOW 12000 FEET WITH NO
SIGNIFICANT WEATHER AND/OR OBSTRUCTIONS TO VISIBILITY.

COZ001>005-013-030-031-211700-
...NORTHWEST COLORADO...

CITY           SKY/WX    TMP DP  RH WIND       PRES   REMARKS
CRAIG          FAIR      77  45  32 N3        30.21F
HAYDEN         FAIR      72  39  30 CALM      30.24S
MEEKER         FAIR      76  42  29 CALM      30.22F
RABBIT EARS PA FAIR      59  36  41 NW6       30.53S
STEAMBOAT SPGS FAIR      69  48  47 W3        30.26S
WALDEN         FAIR      75  37  25 W13       30.34S
$$

COZ006>008-011-211700-
...WEST CENTRAL VALLEYS...

CITY           SKY/WX    TMP DP  RH WIND       PRES   REMARKS
GRAND JUNCTION FAIR      84  41  21 SW5       30.07F
MONTROSE       FAIR      82  42  24 CALM      30.15F
EAGLE          SUNNY     73  41  31 CALM      30.26F
RIFLE          FAIR      79  42  26 VRB3      30.15F
DELTA          FAIR      84  39  20 CALM      30.12F
NUCLA          FAIR      81  34  18 CALM      30.20F
$$

COZ017>023-064>068-211700-
...SOUTHWEST COLORADO...

CITY           SKY/WX    TMP DP  RH WIND       PRES   REMARKS
DURANGO        FAIR      76  39  26 E6        30.23F
CORTEZ         FAIR      82  41  23 CALM      30.16F
PAGOSA SPRINGS FAIR      76  34  21 SW6       30.33S
TELLURIDE      FAIR      72  38  29 CALM      30.45S
WOLF CREEK PAS FAIR      61  27  27 W5G16     30.70S
$$

COZ009-010-012-014-032>034-037-058>063-211700-
...CENTRAL COLORADO...

CITY           SKY/WX    TMP DP  RH WIND       PRES   REMARKS
ASPEN          FAIR      72  45  37 N6        30.30F
BUENA VISTA    FAIR      75  33  20 E6        30.30F
COPPER MTN     FAIR      61  30  31 NW14G21   30.65S
BERTHOUD PASS  FAIR      50  37  62 NW29G38   30.64S
COTTONWOOD PAS FAIR      73  30  20 W5        30.46F
GUNNISON       FAIR      68  42  38 VRB3      30.33F
KREMMLING      NOT AVBL
LEADVILLE      FAIR      69  29  22 NW15G23   30.46S
MONARCH PASS   FAIR      59  32  36 W16G23    30.75F
SALIDA         FAIR      77  36  22 N5        30.34F
SUNLIGHT       FAIR      63  34  34 W8        30.59R
WILKERSON PASS FAIR      63  32  31 NW5       30.60S
$$

COZ069>075-211700-
...SAN LUIS VALLEY/SANGRE DE CRISTO MOUNTAINS...

CITY           SKY/WX    TMP DP  RH WIND       PRES   REMARKS
ALAMOSA        FAIR      73  46  38 S6        30.29F
DEL NORTE      FAIR      75  39  27 E6        30.33F
LA VETA PASS   FAIR      66  41  39 MISG      30.60F
SAGUACHE       FAIR      73  41  31 S8        30.33F
$$

COZ035-036-038>040-211700-
...NORTHERN COLORADO FRONT RANGE...

CITY           SKY/WX    TMP DP  RH WIND       PRES   REMARKS
DENVER INTL AP FAIR      90  39  16 NW9       30.07F
DMNS CITY PARK   N/A     88  44  21 SE2       30.06F
AURORA         MOSUNNY   86  43  21 NW8       30.10S
FRONT RANGE AP FAIR      90  36  14 NW6G18    30.09F
ERIE MUNI ARPT FAIR      89  35  15 CALM      30.05S
BOULDER MUN AP FAIR      88  41  19 E3        30.06S
CENTENNIAL     FAIR      84  41  21 N3        30.11F
BROOMFIELD     FAIR      88  36  15 CALM      30.09F
FORT COLLINS   FAIR      89  40  17 NW15      30.03F
LONGMONT       FAIR      90  46  22 E3        30.05F
$$

COZ041-046-047-076>085-087-088-211700-
...PIKES PEAK/PALMER DIVIDE AND SOUTHERN FOOTHILLS...

CITY           SKY/WX    TMP DP  RH WIND       PRES   REMARKS
COLO. SPRINGS  FAIR      89  38  16 N5        30.12F
A. F. ACADEMY  FAIR      87  38  17 N13       30.14F
SCHRIEVER AFB  NOT AVBL
CHEYENNE MTN   NOT AVBL
ELLICOTT       FAIR     N/A N/A N/A VRB3      30.10F
FALCON           N/A     85  31  14 W10G23    30.19F
FORT CARSON    NOT AVBL
LIMON          FAIR      90  36  14 NW16G26   30.05S
MONUMENT HILL  FAIR      79  39  24 NW6       30.22F
CANON CITY     SUNNY     91  43  18 W14       30.05F
WALSENBURG     FAIR      88  43  20 W18       30.12F
TRINIDAD       FAIR      83  49  30 W9        30.09F
$$

COZ042>045-048>051-090-091-211700-
...NORTHEAST COLORADO...

CITY           SKY/WX    TMP DP  RH WIND       PRES   REMARKS
GREELEY ARPT   FAIR      89  46  22 NW14G21   30.01F
AKRON          FAIR      88  48  25 W15G25    29.99S
BURLINGTON     FAIR      90  57  32 NW10      29.94F
WRAY           FAIR      97  43  15 NW18G28   29.88S
YUMA           FAIR      88  45  22 NW17G26   29.93S
STERLING       FAIR      91  50  24 NW12G17   29.91F
HOLYOKE        NOT AVBL
FORT MORGAN    FAIR      89  47  23 W14G20    29.99S
$$

COZ086-089-092>099-211700-
...SOUTHEAST COLORADO...

CITY           SKY/WX    TMP DP  RH WIND       PRES   REMARKS
PUEBLO         FAIR      91  47  21 W5        29.99F
LA JUNTA       FAIR      87  56  34 W6        29.96F
LAMAR          FAIR      92  56  29 VRB7      29.89F
SPRINGFIELD      N/A     93  52  24 W9        29.95F
$$



USA.gov is the U.S. government's official web portal to all federal, state and local government web resources and services.